This demonstration page uses our WeatherBlox Daily Observations layout. Learn more.

Left ArrowRight Arrow

38.89511, -77.03637

Hourly Observations for June 9, 2022

Temp ( °F °C ) Dew Point ( °F °C ) Humidity (%) Winds ( mph kmh ) Pressure ( in mb ) Visibility ( mi km ) Precip ( " mm )
12:52 am 00:52 Mostly Cloudy 73 22.8 68 20 84 84 S 9 15 29.72 1006 10 16 0.00 0.00
1:44 am 01:44 Cloudy 74 23.3 69 20.6 85 85 SSW 9 15 29.70 1006 10 16 0.00 0.00
1:52 am 01:52 Cloudy 74 23.3 69 20.6 85 85 S 10 17 29.70 1006 10 16 0.00 0.00
2:25 am 02:25 Cloudy with Thunderstorms 74 23.3 69 20.6 85 85 SSW 9 15 29.69 1005 10 16 0.01 0.25
2:52 am 02:52 Cloudy with Thunderstorms 74 23.3 69 20.6 85 85 SW 9 15 29.70 1006 10 16 0.03 0.76
3:17 am 03:17 Mostly Cloudy with Light Rain 73 22.8 69 20.6 87 87 SW 10 17 29.68 1005 7 11 0.01 0.25
3:52 am 03:52 Cloudy with Light Rain 73 22.8 68 20 84 84 S 8 13 29.65 1004 10 16 0.02 0.51
4:52 am 04:52 Cloudy 72 22.2 67 19.4 84 84 SW 8 13 29.66 1004 10 16 0.01 0.25
5:52 am 05:52 Mostly Cloudy 71 21.7 67 19.4 87 87 SW 7 11 29.67 1005 10 16 0.00 0.00
6:52 am 06:52 Mostly Cloudy 72 22.2 67 19.4 84 84 SSW 8 13 29.68 1005 10 16 0.00 0.00
7:52 am 07:52 Partly Cloudy 74 23.3 68 20 82 82 SW 8 13 29.69 1005 10 16 0.00 0.00
8:52 am 08:52 Partly Cloudy 78 25.6 68 20 71 71 WSW 8 13 29.71 1006 10 16 0.00 0.00
9:52 am 09:52 Partly Cloudy 80 26.7 62 16.7 54 54 WNW 10 17 29.72 1006 10 16 0.00 0.00
10:52 am 10:52 Partly Cloudy 82 27.8 58 14.4 44 44 WNW 13 20 29.73 1007 10 16 0.00 0.00
11:52 am 11:52 Partly Cloudy 83 28.3 55 12.8 38 38 W 18 30 29.75 1007 10 16 0.00 0.00
12:52 pm 12:52 Mostly Cloudy 83 28.3 54 12.2 37 37 WNW 14 22 29.76 1008 10 16 0.00 0.00
1:52 pm 13:52 Mostly Cloudy 82 27.8 55 12.8 40 40 NW 14 22 29.76 1008 10 16 0.00 0.00
2:52 pm 14:52 Mostly Cloudy 81 27.2 55 12.8 41 41 NNW 24 39 29.77 1008 10 16 0.00 0.00
3:52 pm 15:52 Cloudy 80 26.7 53 11.7 39 39 NW 15 24 29.78 1009 10 16 0.00 0.00
4:52 pm 16:52 Mostly Cloudy 80 26.7 52 11.1 38 38 NNW 20 31 29.78 1009 10 16 0.00 0.00
5:52 pm 17:52 Partly Cloudy 80 26.7 49 9.4 34 34 NW 16 26 29.79 1009 10 16 0.00 0.00
6:52 pm 18:52 Mostly Cloudy 77 25 52 11.1 42 42 NNW 13 20 29.80 1009 10 16 0.00 0.00
7:52 pm 19:52 Mostly Cloudy 76 24.4 50 10 40 40 NNW 10 17 29.83 1010 10 16 0.00 0.00
8:52 pm 20:52 Partly Cloudy 73 22.8 51 10.6 46 46 NNW 12 19 29.84 1011 10 16 0.00 0.00
9:52 pm 21:52 Partly Cloudy 71 21.7 50 10 47 47 NNW 10 17 29.87 1012 10 16 0.00 0.00
10:52 pm 22:52 Partly Cloudy 70 21.1 50 10 49 49 NW 10 17 29.88 1012 10 16 0.00 0.00
11:52 pm 23:52 Mostly Cloudy 69 20.6 49 9.4 49 49 NNW 10 17 29.89 1012 10 16 0.00 0.00

Powered by AerisWeather